Year,Month,Day,Hour,Minute,Value (Times are PST for barometer in hPa)
2019,02,15,00,00,996.99
2019,02,15,00,01,996.89
2019,02,15,00,02,996.92
2019,02,15,00,03,996.95
2019,02,15,00,04,996.89
2019,02,15,00,05,996.92
2019,02,15,00,06,996.82
2019,02,15,00,07,996.92
2019,02,15,00,08,996.85
2019,02,15,00,09,996.85
2019,02,15,00,10,996.89
2019,02,15,00,11,996.99
2019,02,15,00,12,997.02
2019,02,15,00,13,997.05
2019,02,15,00,14,997.09
2019,02,15,00,15,997.09
2019,02,15,00,16,997.09
2019,02,15,00,17,997.09
2019,02,15,00,18,997.22
2019,02,15,00,19,997.16
2019,02,15,00,20,997.16
2019,02,15,00,21,997.22
2019,02,15,00,22,997.16
2019,02,15,00,23,997.22
2019,02,15,00,24,997.22
2019,02,15,00,25,997.26
2019,02,15,00,26,997.22
2019,02,15,00,27,997.16
2019,02,15,00,28,997.16
2019,02,15,00,29,997.26
2019,02,15,00,30,997.29
2019,02,15,00,31,997.19
2019,02,15,00,32,997.26
2019,02,15,00,33,997.33
2019,02,15,00,34,997.29
2019,02,15,00,35,997.29
2019,02,15,00,36,997.36
2019,02,15,00,37,997.39
2019,02,15,00,38,997.39
2019,02,15,00,39,997.36
2019,02,15,00,40,997.36
2019,02,15,00,41,997.43
2019,02,15,00,42,997.46
2019,02,15,00,43,997.39
2019,02,15,00,44,997.50
2019,02,15,00,45,997.50
2019,02,15,00,46,997.60
2019,02,15,00,47,997.60
2019,02,15,00,48,997.60
2019,02,15,00,49,997.60
2019,02,15,00,50,997.63
2019,02,15,00,51,997.70
2019,02,15,00,52,997.60
2019,02,15,00,53,997.73
2019,02,15,00,54,997.63
2019,02,15,00,55,997.70
2019,02,15,00,56,997.63
2019,02,15,00,57,997.70
2019,02,15,00,58,997.70
2019,02,15,00,59,997.70
2019,02,15,01,00,997.70
2019,02,15,01,01,997.77
2019,02,15,01,02,997.73
2019,02,15,01,03,997.77
2019,02,15,01,04,997.66
2019,02,15,01,05,997.73
2019,02,15,01,06,997.77
2019,02,15,01,07,997.77
2019,02,15,01,08,997.80
2019,02,15,01,09,997.83
2019,02,15,01,10,997.83
2019,02,15,01,11,997.90
2019,02,15,01,12,997.94
2019,02,15,01,13,997.97
2019,02,15,01,14,998.00
2019,02,15,01,15,997.94
2019,02,15,01,16,997.94
2019,02,15,01,17,998.00
2019,02,15,01,18,998.00
2019,02,15,01,19,998.14
2019,02,15,01,20,998.00
2019,02,15,01,21,998.10
2019,02,15,01,22,998.17
2019,02,15,01,23,998.07
2019,02,15,01,24,998.14
2019,02,15,01,25,998.08
2019,02,15,01,26,998.24
2019,02,15,01,27,998.21
2019,02,15,01,28,998.24
2019,02,15,01,29,998.21
2019,02,15,01,30,998.31
2019,02,15,01,31,998.31
2019,02,15,01,32,998.34
2019,02,15,01,33,998.38
2019,02,15,01,34,998.38
2019,02,15,01,35,998.38
2019,02,15,01,36,998.48
2019,02,15,01,37,998.54
2019,02,15,01,38,998.48
2019,02,15,01,39,998.48
2019,02,15,01,40,998.54
2019,02,15,01,41,998.48
2019,02,15,01,42,998.54
2019,02,15,01,43,998.54
2019,02,15,01,44,998.58
2019,02,15,01,45,998.61
2019,02,15,01,46,998.58
2019,02,15,01,47,998.65
2019,02,15,01,48,998.51
2019,02,15,01,49,998.58
2019,02,15,01,50,998.51
2019,02,15,01,51,998.51
2019,02,15,01,52,998.61
2019,02,15,01,53,998.54
2019,02,15,01,54,998.52
2019,02,15,01,55,998.65
2019,02,15,01,56,998.65
2019,02,15,01,57,998.68
2019,02,15,01,58,998.65
2019,02,15,01,59,998.75
2019,02,15,02,00,998.68
2019,02,15,02,01,998.65
2019,02,15,02,02,998.71
2019,02,15,02,03,998.68
2019,02,15,02,04,998.65
2019,02,15,02,05,998.75
2019,02,15,02,06,998.75
2019,02,15,02,07,998.71
2019,02,15,02,08,998.75
2019,02,15,02,09,998.75
2019,02,15,02,10,998.71
2019,02,15,02,11,998.78
2019,02,15,02,12,998.85
2019,02,15,02,13,998.92
2019,02,15,02,14,998.82
2019,02,15,02,15,998.88
2019,02,15,02,16,998.88
2019,02,15,02,17,998.82
2019,02,15,02,18,998.85
2019,02,15,02,19,998.95
2019,02,15,02,20,998.85
2019,02,15,02,21,998.95
2019,02,15,02,22,998.82
2019,02,15,02,23,998.92
2019,02,15,02,24,998.92
2019,02,15,02,25,998.88
2019,02,15,02,26,998.85
2019,02,15,02,27,998.95
2019,02,15,02,28,998.99
2019,02,15,02,29,998.95
2019,02,15,02,30,998.99
2019,02,15,02,31,998.99
2019,02,15,02,32,999.09
2019,02,15,02,33,999.02
2019,02,15,02,34,999.05
2019,02,15,02,35,999.02
2019,02,15,02,36,999.09
2019,02,15,02,37,999.09
2019,02,15,02,38,999.12
2019,02,15,02,39,999.12
2019,02,15,02,40,999.09
2019,02,15,02,41,999.09
2019,02,15,02,42,999.09
2019,02,15,02,43,999.09
2019,02,15,02,44,999.12
2019,02,15,02,45,999.09
2019,02,15,02,46,999.15
2019,02,15,02,47,999.12
2019,02,15,02,48,999.10
2019,02,15,02,49,999.26
2019,02,15,02,50,999.19
2019,02,15,02,51,999.12
2019,02,15,02,52,999.19
2019,02,15,02,53,999.29
2019,02,15,02,54,999.26
2019,02,15,02,55,999.29
2019,02,15,02,56,999.26
2019,02,15,02,57,999.26
2019,02,15,02,58,999.29
2019,02,15,02,59,999.36
2019,02,15,03,00,999.19
2019,02,15,03,01,999.43
2019,02,15,03,02,999.39
2019,02,15,03,03,999.26
2019,02,15,03,04,999.32
2019,02,15,03,05,999.29
2019,02,15,03,06,999.26
2019,02,15,03,07,999.32
2019,02,15,03,08,999.39
2019,02,15,03,09,999.39
2019,02,15,03,10,999.26
2019,02,15,03,11,999.32
2019,02,15,03,12,999.35
2019,02,15,03,13,999.23
2019,02,15,03,14,999.39
2019,02,15,03,15,999.32
2019,02,15,03,16,999.32
2019,02,15,03,17,999.36
2019,02,15,03,18,999.36
2019,02,15,03,19,999.43
2019,02,15,03,20,999.43
2019,02,15,03,21,999.46
2019,02,15,03,22,999.43
2019,02,15,03,23,999.36
2019,02,15,03,24,999.36
2019,02,15,03,25,999.36
2019,02,15,03,26,999.32
2019,02,15,03,27,999.29
2019,02,15,03,28,999.39
2019,02,15,03,29,999.36
2019,02,15,03,30,999.42
2019,02,15,03,31,999.29
2019,02,15,03,32,999.46
2019,02,15,03,33,999.39
2019,02,15,03,34,999.39
2019,02,15,03,35,999.39
2019,02,15,03,36,999.39
2019,02,15,03,37,999.46
2019,02,15,03,38,999.39
2019,02,15,03,39,999.39
2019,02,15,03,40,999.39
2019,02,15,03,41,999.43
2019,02,15,03,42,999.43
2019,02,15,03,43,999.39
2019,02,15,03,44,999.43
2019,02,15,03,45,999.39
2019,02,15,03,46,999.53
2019,02,15,03,47,999.53
2019,02,15,03,48,999.53
2019,02,15,03,49,999.56
2019,02,15,03,50,999.53
2019,02,15,03,51,999.63
2019,02,15,03,52,999.66
2019,02,15,03,53,999.63
2019,02,15,03,54,999.70
2019,02,15,03,55,999.70
2019,02,15,03,56,999.73
2019,02,15,03,57,999.70
2019,02,15,03,58,999.80
2019,02,15,03,59,999.70
2019,02,15,04,00,999.76
2019,02,15,04,01,999.76
2019,02,15,04,02,999.83
2019,02,15,04,03,999.76
2019,02,15,04,04,999.80
2019,02,15,04,05,999.83
2019,02,15,04,06,999.83
2019,02,15,04,07,999.90
2019,02,15,04,08,999.87
2019,02,15,04,09,999.93
2019,02,15,04,10,999.97
2019,02,15,04,11,1000.00
2019,02,15,04,12,999.97
2019,02,15,04,13,999.97
2019,02,15,04,14,999.97
2019,02,15,04,15,999.93
2019,02,15,04,16,1000.00
2019,02,15,04,17,1000.03
2019,02,15,04,18,1000.07
2019,02,15,04,19,1000.07
2019,02,15,04,20,1000.10
2019,02,15,04,21,1000.10
2019,02,15,04,22,1000.10
2019,02,15,04,23,1000.14
2019,02,15,04,24,1000.07
2019,02,15,04,25,1000.10
2019,02,15,04,26,1000.14
2019,02,15,04,27,1000.14
2019,02,15,04,28,1000.27
2019,02,15,04,29,1000.14
2019,02,15,04,30,1000.27
2019,02,15,04,31,1000.17
2019,02,15,04,32,1000.24
2019,02,15,04,33,1000.20
2019,02,15,04,34,1000.27
2019,02,15,04,35,1000.31
2019,02,15,04,36,1000.27
2019,02,15,04,37,1000.31
2019,02,15,04,38,1000.31
2019,02,15,04,39,1000.31
2019,02,15,04,40,1000.27
2019,02,15,04,41,1000.27
2019,02,15,04,42,1000.31
2019,02,15,04,43,1000.31
2019,02,15,04,44,1000.34
2019,02,15,04,45,1000.31
2019,02,15,04,46,1000.31
2019,02,15,04,47,1000.37
2019,02,15,04,48,1000.41
2019,02,15,04,49,1000.41
2019,02,15,04,50,1000.37
2019,02,15,04,51,1000.48
2019,02,15,04,52,1000.31
2019,02,15,04,53,1000.41
2019,02,15,04,54,1000.41
2019,02,15,04,55,1000.31
2019,02,15,04,56,1000.44
2019,02,15,04,57,1000.48
2019,02,15,04,58,1000.41
2019,02,15,04,59,1000.48
2019,02,15,05,00,1000.44
2019,02,15,05,01,1000.48
2019,02,15,05,02,1000.48
2019,02,15,05,03,1000.54
2019,02,15,05,04,1000.51
2019,02,15,05,05,1000.48
2019,02,15,05,06,1000.44
2019,02,15,05,07,1000.54
2019,02,15,05,08,1000.48
2019,02,15,05,09,1000.54
2019,02,15,05,10,1000.61
2019,02,15,05,11,1000.51
2019,02,15,05,12,1000.58
2019,02,15,05,13,1000.64
2019,02,15,05,14,1000.58
2019,02,15,05,15,1000.58
2019,02,15,05,16,1000.61
2019,02,15,05,17,1000.68
2019,02,15,05,18,1000.61
2019,02,15,05,19,1000.61
2019,02,15,05,20,1000.68
2019,02,15,05,21,1000.64
2019,02,15,05,22,1000.68
2019,02,15,05,23,1000.61
2019,02,15,05,24,1000.68
2019,02,15,05,25,1000.64
2019,02,15,05,26,1000.71
2019,02,15,05,27,1000.68
2019,02,15,05,28,1000.64
2019,02,15,05,29,1000.64
2019,02,15,05,30,1000.68
2019,02,15,05,31,1000.68
2019,02,15,05,32,1000.64
2019,02,15,05,33,1000.64
2019,02,15,05,34,1000.65
2019,02,15,05,35,1000.78
2019,02,15,05,36,1000.75
2019,02,15,05,37,1000.68
2019,02,15,05,38,1000.75
2019,02,15,05,39,1000.75
2019,02,15,05,40,1000.78
2019,02,15,05,41,1000.75
2019,02,15,05,42,1000.85
2019,02,15,05,43,1000.81
2019,02,15,05,44,1000.78
2019,02,15,05,45,1000.71
2019,02,15,05,46,1000.78
2019,02,15,05,47,1000.81
2019,02,15,05,48,1000.88
2019,02,15,05,49,1000.81
2019,02,15,05,50,1000.85
2019,02,15,05,51,1000.85
2019,02,15,05,52,1000.85
2019,02,15,05,53,1000.85
2019,02,15,05,54,1000.81
2019,02,15,05,55,1000.95
2019,02,15,05,56,1000.85
2019,02,15,05,57,1000.88
2019,02,15,05,58,1000.92
2019,02,15,05,59,1001.02
2019,02,15,06,00,1000.95
2019,02,15,06,01,1000.92
2019,02,15,06,02,1001.05
2019,02,15,06,03,1000.95
2019,02,15,06,04,1000.98
2019,02,15,06,05,1000.98
2019,02,15,06,06,1000.95
2019,02,15,06,07,1000.92
2019,02,15,06,08,1001.02
2019,02,15,06,09,1000.95
2019,02,15,06,10,1000.95
2019,02,15,06,11,1000.98
2019,02,15,06,12,1001.02
2019,02,15,06,13,1000.98
2019,02,15,06,14,1000.92
2019,02,15,06,15,1001.02
2019,02,15,06,16,1001.02
2019,02,15,06,17,1000.95
2019,02,15,06,18,1001.02
2019,02,15,06,19,1000.98
2019,02,15,06,20,1000.92
2019,02,15,06,21,1000.98
2019,02,15,06,22,1000.95
2019,02,15,06,23,1000.98
2019,02,15,06,24,1000.98
2019,02,15,06,25,1001.02
2019,02,15,06,26,1001.02
2019,02,15,06,27,1001.08
2019,02,15,06,28,1001.05
2019,02,15,06,29,1001.08
2019,02,15,06,30,1001.02
2019,02,15,06,31,1000.98
2019,02,15,06,32,1001.12
2019,02,15,06,33,1001.12
2019,02,15,06,34,1001.02
2019,02,15,06,35,1001.05
2019,02,15,06,36,1001.05
2019,02,15,06,37,1001.08
2019,02,15,06,38,1001.08
2019,02,15,06,39,1001.22
2019,02,15,06,40,1001.15
2019,02,15,06,41,1001.19
2019,02,15,06,42,1001.29
2019,02,15,06,43,1001.19
2019,02,15,06,44,1001.29
2019,02,15,06,45,1001.12
2019,02,15,06,46,1001.25
2019,02,15,06,47,1001.32
2019,02,15,06,48,1001.32
2019,02,15,06,49,1001.39
2019,02,15,06,50,1001.39
2019,02,15,06,51,1001.36
2019,02,15,06,52,1001.42
2019,02,15,06,53,1001.46
2019,02,15,06,54,1001.49
2019,02,15,06,55,1001.49
2019,02,15,06,56,1001.42
2019,02,15,06,57,1001.52
2019,02,15,06,58,1001.46
2019,02,15,06,59,1001.46
2019,02,15,07,00,1001.49
2019,02,15,07,01,1001.66
2019,02,15,07,02,1001.63
2019,02,15,07,03,1001.63
2019,02,15,07,04,1001.59
2019,02,15,07,05,1001.63
2019,02,15,07,06,1001.63
2019,02,15,07,07,1001.66
2019,02,15,07,08,1001.63
2019,02,15,07,09,1001.63
2019,02,15,07,10,1001.69
2019,02,15,07,11,1001.66
2019,02,15,07,12,1001.73
2019,02,15,07,13,1001.73
2019,02,15,07,14,1001.66
2019,02,15,07,15,1001.80
2019,02,15,07,16,1001.83
2019,02,15,07,17,1001.83
2019,02,15,07,18,1001.80
2019,02,15,07,19,1001.86
2019,02,15,07,20,1001.83
2019,02,15,07,21,1001.76
2019,02,15,07,22,1001.93
2019,02,15,07,23,1001.90
2019,02,15,07,24,1001.90
2019,02,15,07,25,1001.97
2019,02,15,07,26,1001.90
2019,02,15,07,27,1001.97
2019,02,15,07,28,1001.97
2019,02,15,07,29,1001.97
2019,02,15,07,30,1002.03
2019,02,15,07,31,1002.03
2019,02,15,07,32,1002.03
2019,02,15,07,33,1002.07
2019,02,15,07,34,1002.07
2019,02,15,07,35,1001.97
2019,02,15,07,36,1002.03
2019,02,15,07,37,1001.97
2019,02,15,07,38,1002.13
2019,02,15,07,39,1002.10
2019,02,15,07,40,1002.10
2019,02,15,07,41,1002.13
2019,02,15,07,42,1002.20
2019,02,15,07,43,1002.10
2019,02,15,07,44,1002.20
2019,02,15,07,45,1002.13
2019,02,15,07,46,1002.20
2019,02,15,07,47,1002.20
2019,02,15,07,48,1002.24
2019,02,15,07,49,1002.20
2019,02,15,07,50,1002.24
2019,02,15,07,51,1002.13
2019,02,15,07,52,1002.17
2019,02,15,07,53,1002.24
2019,02,15,07,54,1002.24
2019,02,15,07,55,1002.24
2019,02,15,07,56,1002.30
2019,02,15,07,57,1002.30
2019,02,15,07,58,1002.37
2019,02,15,07,59,1002.30
2019,02,15,08,00,1002.27
2019,02,15,08,01,1002.20
2019,02,15,08,02,1002.34
2019,02,15,08,03,1002.34
2019,02,15,08,04,1002.37
2019,02,15,08,05,1002.30
2019,02,15,08,06,1002.41
2019,02,15,08,07,1002.37
2019,02,15,08,08,1002.37
2019,02,15,08,09,1002.41
2019,02,15,08,10,1002.47
2019,02,15,08,11,1002.41
2019,02,15,08,12,1002.41
2019,02,15,08,13,1002.37
2019,02,15,08,14,1002.41
2019,02,15,08,15,1002.44
2019,02,15,08,16,1002.51
2019,02,15,08,17,1002.47
2019,02,15,08,18,1002.51
2019,02,15,08,19,1002.51
2019,02,15,08,20,1002.54
2019,02,15,08,21,1002.68
2019,02,15,08,22,1002.44
2019,02,15,08,23,1002.61
2019,02,15,08,24,1002.54
2019,02,15,08,25,1002.68
2019,02,15,08,26,1002.68
2019,02,15,08,27,1002.64
2019,02,15,08,28,1002.68
2019,02,15,08,29,1002.71
2019,02,15,08,30,1002.68
2019,02,15,08,31,1002.74
2019,02,15,08,32,1002.57
2019,02,15,08,33,1002.71
2019,02,15,08,34,1002.74
2019,02,15,08,35,1002.74
2019,02,15,08,36,1002.78
2019,02,15,08,37,1002.81
2019,02,15,08,38,1002.81
2019,02,15,08,39,1002.78
2019,02,15,08,40,1002.85
2019,02,15,08,41,1002.78
2019,02,15,08,42,1002.85
2019,02,15,08,43,1002.88
2019,02,15,08,44,1002.91
2019,02,15,08,45,1002.98
2019,02,15,08,46,1002.85
2019,02,15,08,47,1002.95
2019,02,15,08,48,1002.95
2019,02,15,08,49,1002.98
2019,02,15,08,50,1002.91
2019,02,15,08,51,1002.91
2019,02,15,08,52,1002.95
2019,02,15,08,53,1002.98
2019,02,15,08,54,1003.05
2019,02,15,08,55,1003.05
2019,02,15,08,56,1002.98
2019,02,15,08,57,1002.95
2019,02,15,08,58,1003.01
2019,02,15,08,59,1003.15
2019,02,15,09,00,1003.18
2019,02,15,09,01,1003.08
2019,02,15,09,02,1003.22
2019,02,15,09,03,1003.12
2019,02,15,09,04,1003.12
2019,02,15,09,05,1003.15
2019,02,15,09,06,1003.25
2019,02,15,09,07,1003.29
2019,02,15,09,08,1003.29
2019,02,15,09,09,1003.35
2019,02,15,09,10,1003.39
2019,02,15,09,11,1003.35
2019,02,15,09,12,1003.32
2019,02,15,09,13,1003.39
2019,02,15,09,14,1003.35
2019,02,15,09,15,1003.39
2019,02,15,09,16,1003.49
2019,02,15,09,17,1003.39
2019,02,15,09,18,1003.42
2019,02,15,09,19,1003.42
2019,02,15,09,20,1003.39
2019,02,15,09,21,1003.49
2019,02,15,09,22,1003.49
2019,02,15,09,23,1003.56
2019,02,15,09,24,1003.49
2019,02,15,09,25,1003.46
2019,02,15,09,26,1003.56
2019,02,15,09,27,1003.56
2019,02,15,09,28,1003.56
2019,02,15,09,29,1003.56
2019,02,15,09,30,1003.62
2019,02,15,09,31,1003.69
2019,02,15,09,32,1003.59
2019,02,15,09,33,1003.66
2019,02,15,09,34,1003.56
2019,02,15,09,35,1003.59
2019,02,15,09,36,1003.66
2019,02,15,09,37,1003.57
2019,02,15,09,38,1003.73
2019,02,15,09,39,1003.62
2019,02,15,09,40,1003.69
2019,02,15,09,41,1003.62
2019,02,15,09,42,1003.62
2019,02,15,09,43,1003.69
2019,02,15,09,44,1003.66
2019,02,15,09,45,1003.73
2019,02,15,09,46,1003.73
2019,02,15,09,47,1003.69
2019,02,15,09,48,1003.76
2019,02,15,09,49,1003.79
2019,02,15,09,50,1003.83
2019,02,15,09,51,1003.83
2019,02,15,09,52,1003.79
2019,02,15,09,53,1003.86
2019,02,15,09,54,1003.90
2019,02,15,09,55,1003.90
2019,02,15,09,56,1003.90
2019,02,15,09,57,1003.90
2019,02,15,09,58,1004.00
2019,02,15,09,59,1003.90
2019,02,15,10,00,1004.00
2019,02,15,10,01,1004.10
2019,02,15,10,02,1004.10
2019,02,15,10,03,1004.03
2019,02,15,10,04,1004.13
2019,02,15,10,05,1004.17
2019,02,15,10,06,1004.17
2019,02,15,10,07,1004.17
2019,02,15,10,08,1004.17
2019,02,15,10,09,1004.13
2019,02,15,10,10,1004.17
2019,02,15,10,11,1004.13
2019,02,15,10,12,1004.06
2019,02,15,10,13,1004.13
2019,02,15,10,14,1004.13
2019,02,15,10,15,1004.13
2019,02,15,10,16,1004.17
2019,02,15,10,17,1004.13
2019,02,15,10,18,1004.17
2019,02,15,10,19,1004.13
2019,02,15,10,20,1004.17
2019,02,15,10,21,1004.23
2019,02,15,10,22,1004.13
2019,02,15,10,23,1004.23
2019,02,15,10,24,1004.27
2019,02,15,10,25,1004.27
2019,02,15,10,26,1004.27
2019,02,15,10,27,1004.27
2019,02,15,10,28,1004.17
2019,02,15,10,29,1004.30
2019,02,15,10,30,1004.20
2019,02,15,10,31,1004.27
2019,02,15,10,32,1004.34
2019,02,15,10,33,1004.30
2019,02,15,10,34,1004.30
2019,02,15,10,35,1004.37
2019,02,15,10,36,1004.40
2019,02,15,10,37,1004.40
2019,02,15,10,38,1004.37
2019,02,15,10,39,1004.44
2019,02,15,10,40,1004.50
2019,02,15,10,41,1004.44
2019,02,15,10,42,1004.44
2019,02,15,10,43,1004.57
2019,02,15,10,44,1004.50
2019,02,15,10,45,1004.57
2019,02,15,10,46,1004.50
2019,02,15,10,47,1004.61
2019,02,15,10,48,1004.54
2019,02,15,10,49,1004.57
2019,02,15,10,50,1004.54
2019,02,15,10,51,1004.57
2019,02,15,10,52,1004.57
2019,02,15,10,53,1004.67
2019,02,15,10,54,1004.61
2019,02,15,10,55,1004.64
2019,02,15,10,56,1004.71
2019,02,15,10,57,1004.78
2019,02,15,10,58,1004.78
2019,02,15,10,59,1004.88
2019,02,15,11,00,1004.81
2019,02,15,11,01,1004.88
2019,02,15,11,02,1004.95
2019,02,15,11,03,1004.98
2019,02,15,11,04,1004.95
2019,02,15,11,05,1005.01
2019,02,15,11,06,1005.05
2019,02,15,11,07,1005.08
2019,02,15,11,08,1005.05
2019,02,15,11,09,1005.08
2019,02,15,11,10,1005.08
2019,02,15,11,11,1005.11
2019,02,15,11,12,1005.28
2019,02,15,11,13,1005.18
2019,02,15,11,14,1005.15
2019,02,15,11,15,1005.22
2019,02,15,11,16,1005.32
2019,02,15,11,17,1005.25
2019,02,15,11,18,1005.28
2019,02,15,11,19,1005.25
2019,02,15,11,20,1005.32
2019,02,15,11,21,1005.25
2019,02,15,11,22,1005.39
2019,02,15,11,23,1005.28
2019,02,15,11,24,1005.32
2019,02,15,11,25,1005.39
2019,02,15,11,26,1005.45
2019,02,15,11,27,1005.35
2019,02,15,11,28,1005.28
2019,02,15,11,29,1005.45
2019,02,15,11,30,1005.35
2019,02,15,11,31,1005.45
2019,02,15,11,32,1005.35
2019,02,15,11,33,1005.32
2019,02,15,11,34,1005.32
2019,02,15,11,35,1005.39
2019,02,15,11,36,1005.35
2019,02,15,11,37,1005.52
2019,02,15,11,38,1005.45
2019,02,15,11,39,1005.39
2019,02,15,11,40,1005.52
2019,02,15,11,41,1005.49
2019,02,15,11,42,1005.55
2019,02,15,11,43,1005.59
2019,02,15,11,44,1005.55
2019,02,15,11,45,1005.49
2019,02,15,11,46,1005.55
2019,02,15,11,47,1005.62
2019,02,15,11,48,1005.52
2019,02,15,11,49,1005.55
2019,02,15,11,50,1005.66
2019,02,15,11,51,1005.69
2019,02,15,11,52,1005.59
2019,02,15,11,53,1005.66
2019,02,15,11,54,1005.69
2019,02,15,11,55,1005.66
2019,02,15,11,56,1005.79
2019,02,15,11,57,1005.72
2019,02,15,11,58,1005.76
2019,02,15,11,59,1005.76
2019,02,15,12,00,1005.76
2019,02,15,12,01,1005.79
2019,02,15,12,02,1005.79
2019,02,15,12,03,1005.89
2019,02,15,12,04,1005.86
2019,02,15,12,05,1005.76
2019,02,15,12,06,1005.86
2019,02,15,12,07,1005.86
2019,02,15,12,08,1005.83
2019,02,15,12,09,1005.86
2019,02,15,12,10,1005.86
2019,02,15,12,11,1005.89
2019,02,15,12,12,1005.89
2019,02,15,12,13,1005.93
2019,02,15,12,14,1005.83
2019,02,15,12,15,1005.99
2019,02,15,12,16,1005.86
2019,02,15,12,17,1005.89
2019,02,15,12,18,1005.96
2019,02,15,12,19,1005.96
2019,02,15,12,20,1005.93
2019,02,15,12,21,1005.96
2019,02,15,12,22,1005.93
2019,02,15,12,23,1005.96
2019,02,15,12,24,1005.93
2019,02,15,12,25,1005.93
2019,02,15,12,26,1006.03
2019,02,15,12,27,1005.99
2019,02,15,12,28,1005.96
2019,02,15,12,29,1005.93
2019,02,15,12,30,1005.96
2019,02,15,12,31,1005.89
2019,02,15,12,32,1005.99
2019,02,15,12,33,1006.03
2019,02,15,12,34,1005.99
2019,02,15,12,35,1005.96
2019,02,15,12,36,1005.96
2019,02,15,12,37,1006.03
2019,02,15,12,38,1005.99
2019,02,15,12,39,1005.99
2019,02,15,12,40,1005.96
2019,02,15,12,41,1005.99
2019,02,15,12,42,1005.99
2019,02,15,12,43,1006.03
2019,02,15,12,44,1006.03
2019,02,15,12,45,1005.96
2019,02,15,12,46,1006.03
2019,02,15,12,47,1006.06
2019,02,15,12,48,1006.10
2019,02,15,12,49,1006.03
2019,02,15,12,50,1006.16
2019,02,15,12,51,1006.10
2019,02,15,12,52,1006.10
2019,02,15,12,53,1006.16
2019,02,15,12,54,1006.13
2019,02,15,12,55,1006.20
2019,02,15,12,56,1006.13
2019,02,15,12,57,1006.20
2019,02,15,12,58,1006.16
2019,02,15,12,59,1006.20
2019,02,15,13,00,1006.13
2019,02,15,13,01,1006.23
2019,02,15,13,02,1006.23
2019,02,15,13,03,1006.23
2019,02,15,13,04,1006.20
2019,02,15,13,05,1006.16
2019,02,15,13,06,1006.23
2019,02,15,13,07,1006.13
2019,02,15,13,08,1006.20
2019,02,15,13,09,1006.23
2019,02,15,13,10,1006.27
2019,02,15,13,11,1006.30
2019,02,15,13,12,1006.27
2019,02,15,13,13,1006.30
2019,02,15,13,14,1006.27
2019,02,15,13,15,1006.30
2019,02,15,13,16,1006.30
2019,02,15,13,17,1006.30
2019,02,15,13,18,1006.40
2019,02,15,13,19,1006.30
2019,02,15,13,20,1006.30
2019,02,15,13,21,1006.27
2019,02,15,13,22,1006.40
2019,02,15,13,23,1006.37
2019,02,15,13,24,1006.30
2019,02,15,13,25,1006.37
2019,02,15,13,26,1006.40
2019,02,15,13,27,1006.33
2019,02,15,13,28,1006.30
2019,02,15,13,29,1006.40
2019,02,15,13,30,1006.37
2019,02,15,13,31,1006.40
2019,02,15,13,32,1006.40
2019,02,15,13,33,1006.47
2019,02,15,13,34,1006.44
2019,02,15,13,35,1006.50
2019,02,15,13,36,1006.54
2019,02,15,13,37,1006.47
2019,02,15,13,38,1006.50
2019,02,15,13,39,1006.44
2019,02,15,13,40,1006.54
2019,02,15,13,41,1006.47
2019,02,15,13,42,1006.50
2019,02,15,13,43,1006.47
2019,02,15,13,44,1006.47
2019,02,15,13,45,1006.54
2019,02,15,13,46,1006.54
2019,02,15,13,47,1006.57
2019,02,15,13,48,1006.54
2019,02,15,13,49,1006.54
2019,02,15,13,50,1006.57
2019,02,15,13,51,1006.54
2019,02,15,13,52,1006.60
2019,02,15,13,53,1006.54
2019,02,15,13,54,1006.57
2019,02,15,13,55,1006.60
2019,02,15,13,56,1006.57
2019,02,15,13,57,1006.60
2019,02,15,13,58,1006.54
2019,02,15,13,59,1006.57
2019,02,15,14,00,1006.57
2019,02,15,14,01,1006.54
2019,02,15,14,02,1006.50
2019,02,15,14,03,1006.60
2019,02,15,14,04,1006.50
2019,02,15,14,05,1006.54
2019,02,15,14,06,1006.50
2019,02,15,14,07,1006.50
2019,02,15,14,08,1006.54
2019,02,15,14,09,1006.47
2019,02,15,14,10,1006.47
2019,02,15,14,11,1006.47
2019,02,15,14,12,1006.50
2019,02,15,14,13,1006.54
2019,02,15,14,14,1006.57
2019,02,15,14,15,1006.50
2019,02,15,14,16,1006.57
2019,02,15,14,17,1006.60
2019,02,15,14,18,1006.57
2019,02,15,14,19,1006.57
2019,02,15,14,20,1006.54
2019,02,15,14,21,1006.71
2019,02,15,14,22,1006.64
2019,02,15,14,23,1006.64
2019,02,15,14,24,1006.64
2019,02,15,14,25,1006.74
2019,02,15,14,26,1006.74
2019,02,15,14,27,1006.74
2019,02,15,14,28,1006.81
2019,02,15,14,29,1006.81
2019,02,15,14,30,1006.84
2019,02,15,14,31,1006.84
2019,02,15,14,32,1006.91
2019,02,15,14,33,1006.84
2019,02,15,14,34,1006.84
2019,02,15,14,35,1006.84
2019,02,15,14,36,1006.84
2019,02,15,14,37,1006.88
2019,02,15,14,38,1006.91
2019,02,15,14,39,1006.94
2019,02,15,14,40,1007.01
2019,02,15,14,41,1006.88
2019,02,15,14,42,1007.01
2019,02,15,14,43,1006.98
2019,02,15,14,44,1006.94
2019,02,15,14,45,1006.91
2019,02,15,14,46,1006.91
2019,02,15,14,47,1007.04
2019,02,15,14,48,1006.98
2019,02,15,14,49,1006.94
2019,02,15,14,50,1006.94
2019,02,15,14,51,1007.04
2019,02,15,14,52,1006.98
2019,02,15,14,53,1007.01
2019,02,15,14,54,1007.08
2019,02,15,14,55,1007.01
2019,02,15,14,56,1007.04
2019,02,15,14,57,1007.04
2019,02,15,14,58,1007.04
2019,02,15,14,59,1007.04
2019,02,15,15,00,1007.08
2019,02,15,15,01,1007.08
2019,02,15,15,02,1007.08
2019,02,15,15,03,1007.04
2019,02,15,15,04,1007.04
2019,02,15,15,05,1007.11
2019,02,15,15,06,1007.11
2019,02,15,15,07,1007.15
2019,02,15,15,08,1007.15
2019,02,15,15,09,1007.04
2019,02,15,15,10,1007.04
2019,02,15,15,11,1007.15
2019,02,15,15,12,1007.15
2019,02,15,15,13,1007.15
2019,02,15,15,14,1007.11
2019,02,15,15,15,1007.18
2019,02,15,15,16,1007.18
2019,02,15,15,17,1007.18
2019,02,15,15,18,1007.18
2019,02,15,15,19,1007.18
2019,02,15,15,20,1007.15
2019,02,15,15,21,1007.21
2019,02,15,15,22,1007.21
2019,02,15,15,23,1007.21
2019,02,15,15,24,1007.21
2019,02,15,15,25,1007.35
2019,02,15,15,26,1007.25
2019,02,15,15,27,1007.21
2019,02,15,15,28,1007.28
2019,02,15,15,29,1007.25
2019,02,15,15,30,1007.35
2019,02,15,15,31,1007.32
2019,02,15,15,32,1007.35
2019,02,15,15,33,1007.32
2019,02,15,15,34,1007.32
2019,02,15,15,35,1007.35
2019,02,15,15,36,1007.32
2019,02,15,15,37,1007.35
2019,02,15,15,38,1007.35
2019,02,15,15,39,1007.32
2019,02,15,15,40,1007.35
2019,02,15,15,41,1007.38
2019,02,15,15,42,1007.35
2019,02,15,15,43,1007.48
2019,02,15,15,44,1007.38
2019,02,15,15,45,1007.32
2019,02,15,15,46,1007.38
2019,02,15,15,47,1007.48
2019,02,15,15,48,1007.48
2019,02,15,15,49,1007.48
2019,02,15,15,50,1007.45
2019,02,15,15,51,1007.55
2019,02,15,15,52,1007.42
2019,02,15,15,53,1007.52
2019,02,15,15,54,1007.55
2019,02,15,15,55,1007.52
2019,02,15,15,56,1007.48
2019,02,15,15,57,1007.55
2019,02,15,15,58,1007.48
2019,02,15,15,59,1007.48
2019,02,15,16,00,1007.48
2019,02,15,16,01,1007.59
2019,02,15,16,02,1007.59
2019,02,15,16,03,1007.55
2019,02,15,16,04,1007.55
2019,02,15,16,05,1007.62
2019,02,15,16,06,1007.55